Time,TemperatureF,DewpointF,PressureIn,WindDirection,WindDirectionDegrees,WindSpeedMPH,WindSpeedGustMPH,Humidity,HourlyPrecipIn,Conditions,Clouds,dailyrainin,SoftwareType,DateUTC
2013-09-10 00:23:00,79.0,63.0,29.94,SE,136,0.0,1.0,58,0.00,,,0.00,,2013-09-10 05:23:00,
2013-09-10 00:43:00,79.0,63.0,29.94,SW,221,0.0,0.0,59,0.00,,,0.00,,2013-09-10 05:43:00,
2013-09-10 00:53:00,78.0,63.0,29.94,SSW,207,0.0,1.0,60,0.00,,,0.00,,2013-09-10 05:53:00,
2013-09-10 01:12:00,78.0,63.0,29.95,SSW,201,0.0,1.0,60,0.00,,,0.00,,2013-09-10 06:12:00,
2013-09-10 01:22:00,78.0,63.0,29.96,SSW,212,0.0,1.0,60,0.00,,,0.00,,2013-09-10 06:22:00,
2013-09-10 01:42:00,78.0,63.0,29.96,SE,145,0.0,1.0,60,0.00,,,0.00,,2013-09-10 06:42:00,
2013-09-10 01:52:00,77.0,62.0,29.96,ESE,109,0.0,1.0,59,0.00,,,0.00,,2013-09-10 06:52:00,
2013-09-10 02:12:00,77.0,63.0,29.97,SSW,213,0.0,2.0,61,0.00,,,0.00,,2013-09-10 07:12:00,
2013-09-10 02:22:00,77.0,63.0,29.97,SW,214,0.0,1.0,62,0.00,,,0.00,,2013-09-10 07:22:00,
2013-09-10 02:42:00,77.0,63.0,29.97,SW,229,0.0,1.0,62,0.00,,,0.00,,2013-09-10 07:42:00,
2013-09-10 02:52:00,76.0,63.0,29.98,SW,218,0.0,1.0,64,0.00,,,0.00,,2013-09-10 07:52:00,
2013-09-10 03:12:00,76.0,63.0,29.98,SSW,212,0.0,1.0,65,0.00,,,0.00,,2013-09-10 08:12:00,
2013-09-10 03:22:00,76.0,64.0,29.98,East,96,0.0,1.0,66,0.00,,,0.00,,2013-09-10 08:22:00,
2013-09-10 03:52:00,75.0,64.0,29.98,WSW,240,0.0,1.0,68,0.00,,,0.00,,2013-09-10 08:52:00,
2013-09-10 04:11:00,75.0,65.0,29.99,ESE,102,0.0,1.0,70,0.00,,,0.00,,2013-09-10 09:11:00,
2013-09-10 04:22:00,74.0,64.0,29.99,South,181,0.0,1.0,71,0.00,,,0.00,,2013-09-10 09:22:00,
2013-09-10 04:43:00,74.0,64.0,30.00,West,266,0.0,1.0,71,0.00,,,0.00,,2013-09-10 09:43:00,
2013-09-10 04:54:00,74.0,64.0,30.00,WSW,255,0.0,1.0,72,0.00,,,0.00,,2013-09-10 09:54:00,
2013-09-10 05:13:00,74.0,65.0,30.01,SSW,205,0.0,1.0,73,0.00,,,0.00,,2013-09-10 10:13:00,
2013-09-10 05:23:00,74.0,65.0,30.01,SE,144,0.0,1.0,74,0.00,,,0.00,,2013-09-10 10:23:00,
2013-09-10 05:53:00,73.0,65.0,30.01,SSW,206,0.0,0.0,75,0.00,,,0.00,,2013-09-10 10:53:00,
2013-09-10 06:12:00,73.0,65.0,30.02,ESE,120,0.0,1.0,76,0.00,,,0.00,,2013-09-10 11:12:00,
2013-09-10 06:22:00,72.0,64.0,30.02,SE,144,0.0,0.0,77,0.00,,,0.00,,2013-09-10 11:22:00,
2013-09-10 06:42:00,72.0,65.0,30.02,SSW,209,0.0,1.0,78,0.00,,,0.00,,2013-09-10 11:42:00,
2013-09-10 06:52:00,71.0,64.0,30.03,SSW,209,0.0,0.0,79,0.00,,,0.00,,2013-09-10 11:52:00,
2013-09-10 07:12:00,71.0,65.0,30.03,SSW,209,0.0,0.0,80,0.00,,,0.00,,2013-09-10 12:12:00,
2013-09-10 07:22:00,70.0,64.0,30.03,SSW,209,0.0,0.0,82,0.00,,,0.00,,2013-09-10 12:22:00,
2013-09-10 07:42:00,70.0,65.0,30.04,SSW,209,0.0,0.0,83,0.00,,,0.00,,2013-09-10 12:42:00,
2013-09-10 07:52:00,71.0,65.0,30.04,SSW,208,0.0,1.0,81,0.00,,,0.00,,2013-09-10 12:52:00,
2013-09-10 08:11:00,73.0,66.0,30.05,SSE,168,0.0,1.0,78,0.00,,,0.00,,2013-09-10 13:11:00,
2013-09-10 08:21:00,75.0,66.0,30.05,SSE,160,0.0,1.0,74,0.00,,,0.00,,2013-09-10 13:21:00,
2013-09-10 08:42:00,77.0,67.0,30.06,NW,315,0.0,2.0,71,0.00,,,0.00,,2013-09-10 13:42:00,
2013-09-10 09:21:00,82.0,68.0,30.07,SSE,160,1.0,5.0,63,0.00,,,0.00,,2013-09-10 14:21:00,
2013-09-10 09:42:00,82.0,68.0,30.07,SE,143,0.0,3.0,63,0.00,,,0.00,,2013-09-10 14:42:00,
2013-09-10 09:52:00,82.0,68.0,30.08,West,259,0.0,5.0,63,0.00,,,0.00,,2013-09-10 14:52:00,
2013-09-10 10:11:00,82.0,68.0,30.08,SW,225,1.0,4.0,62,0.00,,,0.00,,2013-09-10 15:11:00,
2013-09-10 10:22:00,83.0,69.0,30.08,SE,141,1.0,6.0,62,0.00,,,0.00,,2013-09-10 15:22:00,
2013-09-10 10:43:00,83.0,68.0,30.09,SE,130,0.0,4.0,61,0.00,,,0.00,,2013-09-10 15:43:00,
2013-09-10 10:54:00,84.0,68.0,30.09,WSW,238,1.0,7.0,58,0.00,,,0.00,,2013-09-10 15:54:00,
2013-09-10 11:13:00,84.0,68.0,30.09,SW,223,0.0,5.0,58,0.00,,,0.00,,2013-09-10 16:13:00,
2013-09-10 11:23:00,84.0,68.0,30.09,East,101,0.0,6.0,58,0.00,,,0.00,,2013-09-10 16:23:00,
2013-09-10 11:43:00,85.0,68.0,30.09,East,86,1.0,6.0,56,0.00,,,0.00,,2013-09-10 16:43:00,
2013-09-10 11:53:00,85.0,68.0,30.09,East,86,1.0,6.0,56,0.00,,,0.00,,2013-09-10 16:53:00,
2013-09-10 12:12:00,85.0,68.0,30.08,WNW,285,2.0,6.0,57,0.00,,,0.00,,2013-09-10 17:12:00,
2013-09-10 12:23:00,85.0,69.0,30.09,SW,224,0.0,5.0,58,0.00,,,0.00,,2013-09-10 17:23:00,
2013-09-10 12:53:00,85.0,68.0,30.08,West,272,0.0,5.0,56,0.00,,,0.00,,2013-09-10 17:53:00,
2013-09-10 13:12:00,86.0,68.0,30.08,SE,143,1.0,4.0,55,0.00,,,0.00,,2013-09-10 18:12:00,
2013-09-10 13:21:00,88.0,64.0,30.07,WSW,238,2.0,5.0,45,0.00,,,0.00,,2013-09-10 18:21:00,
2013-09-10 13:43:00,90.0,64.0,30.06,ESE,118,2.0,6.0,43,0.00,,,0.00,,2013-09-10 18:43:00,
2013-09-10 13:52:00,90.0,64.0,30.06,ESE,106,3.0,11.0,42,0.00,,,0.00,,2013-09-10 18:52:00,
2013-09-10 14:11:00,90.0,66.0,30.05,ENE,74,0.0,6.0,45,0.00,,,0.00,,2013-09-10 19:11:00,
2013-09-10 14:22:00,90.0,63.0,30.04,West,261,1.0,19.0,41,0.00,,,0.00,,2013-09-10 19:22:00,
2013-09-10 14:42:00,91.0,63.0,30.03,SW,236,1.0,5.0,40,0.00,,,0.00,,2013-09-10 19:42:00,
2013-09-10 14:52:00,91.0,63.0,30.03,WSW,257,1.0,6.0,39,0.00,,,0.00,,2013-09-10 19:52:00,
2013-09-10 15:12:00,92.0,63.0,30.02,East,82,0.0,8.0,39,0.00,,,0.00,,2013-09-10 20:12:00,
2013-09-10 15:21:00,91.0,61.0,30.02,South,190,2.0,6.0,37,0.00,,,0.00,,2013-09-10 20:21:00,
2013-09-10 15:42:00,91.0,62.0,30.01,East,84,1.0,8.0,38,0.00,,,0.00,,2013-09-10 20:42:00,
2013-09-10 15:52:00,91.0,59.0,30.01,SE,125,1.0,8.0,35,0.00,,,0.00,,2013-09-10 20:52:00,
2013-09-10 16:23:00,92.0,59.0,30.00,ESE,105,1.0,8.0,33,0.00,,,0.00,,2013-09-10 21:23:00,
2013-09-10 16:44:00,93.0,58.0,29.99,SSW,207,2.0,6.0,31,0.00,,,0.00,,2013-09-10 21:44:00,
2013-09-10 16:54:00,93.0,58.0,29.99,SSW,207,2.0,6.0,31,0.00,,,0.00,,2013-09-10 21:54:00,
2013-09-10 17:14:00,93.0,59.0,29.98,East,85,3.0,6.0,32,0.00,,,0.00,,2013-09-10 22:14:00,
2013-09-10 17:24:00,93.0,58.0,29.98,SW,236,1.0,9.0,31,0.00,,,0.00,,2013-09-10 22:24:00,
2013-09-10 17:42:00,92.0,58.0,29.98,SW,233,0.0,4.0,32,0.00,,,0.00,,2013-09-10 22:42:00,
2013-09-10 17:54:00,93.0,59.0,29.97,East,79,1.0,5.0,32,0.00,,,0.00,,2013-09-10 22:54:00,
2013-09-10 18:03:00,93.0,59.0,29.97,East,79,1.0,5.0,32,0.00,,,0.00,,2013-09-10 23:03:00,
2013-09-10 18:13:00,93.0,59.0,29.97,East,79,1.0,5.0,32,0.00,,,0.00,,2013-09-10 23:13:00,
2013-09-10 18:22:00,92.0,59.0,29.97,East,86,2.0,7.0,33,0.00,,,0.00,,2013-09-10 23:22:00,
2013-09-10 18:42:00,92.0,60.0,29.97,WSW,250,1.0,8.0,34,0.00,,,0.00,,2013-09-10 23:42:00,
2013-09-10 18:53:00,91.0,59.0,29.98,SSW,210,0.0,5.0,34,0.00,,,0.00,,2013-09-10 23:53:00,
2013-09-10 19:11:00,91.0,59.0,29.98,SSW,212,1.0,5.0,34,0.00,,,0.00,,2013-09-11 00:11:00,
2013-09-10 19:22:00,90.0,59.0,29.98,SSE,160,0.0,3.0,35,0.00,,,0.00,,2013-09-11 00:22:00,
2013-09-10 19:42:00,89.0,58.0,29.98,NW,326,0.0,7.0,35,0.00,,,0.00,,2013-09-11 00:42:00,
2013-09-10 19:52:00,89.0,59.0,29.98,NE,51,0.0,4.0,36,0.00,,,0.00,,2013-09-11 00:52:00,
2013-09-10 20:11:00,88.0,59.0,29.99,SE,124,0.0,4.0,38,0.00,,,0.00,,2013-09-11 01:11:00,
2013-09-10 20:21:00,87.0,60.0,29.99,SSE,156,0.0,1.0,40,0.00,,,0.00,,2013-09-11 01:21:00,
2013-09-10 20:42:00,86.0,60.0,30.00,SW,219,0.0,2.0,41,0.00,,,0.00,,2013-09-11 01:42:00,
2013-09-10 20:53:00,85.0,59.0,30.00,SSW,193,0.0,3.0,42,0.00,,,0.00,,2013-09-11 01:53:00,
2013-09-10 21:11:00,85.0,57.0,30.01,WSW,239,0.0,4.0,39,0.00,,,0.00,,2013-09-11 02:11:00,
2013-09-10 21:22:00,84.0,56.0,30.02,SSW,207,0.0,4.0,39,0.00,,,0.00,,2013-09-11 02:22:00,
2013-09-10 21:43:00,83.0,55.0,30.02,SW,229,1.0,5.0,39,0.00,,,0.00,,2013-09-11 02:43:00,
2013-09-10 21:52:00,83.0,55.0,30.03,SSW,210,0.0,4.0,39,0.00,,,0.00,,2013-09-11 02:52:00,
2013-09-10 22:12:00,82.0,55.0,30.03,SSW,207,0.0,2.0,40,0.00,,,0.00,,2013-09-11 03:12:00,
2013-09-10 22:22:00,82.0,56.0,30.04,SSE,167,0.0,2.0,41,0.00,,,0.00,,2013-09-11 03:22:00,
2013-09-10 22:45:00,81.0,56.0,30.04,SE,144,0.0,2.0,42,0.00,,,0.00,,2013-09-11 03:45:00,
2013-09-10 22:54:00,80.0,55.0,30.05,SSW,198,0.0,1.0,43,0.00,,,0.00,,2013-09-11 03:54:00,
2013-09-10 23:14:00,79.0,56.0,30.05,ESE,114,0.0,2.0,45,0.00,,,0.00,,2013-09-11 04:14:00,
2013-09-10 23:24:00,78.0,56.0,30.05,WSW,250,0.0,1.0,46,0.00,,,0.00,,2013-09-11 04:24:00,
2013-09-10 23:43:00,78.0,57.0,30.05,South,175,0.0,1.0,48,0.00,,,0.00,,2013-09-11 04:43:00,
2013-09-10 23:54:00,77.0,56.0,30.05,ESE,118,0.0,1.0,49,0.00,,,0.00,,2013-09-11 04:54:00,